Regional Weather Roundup
Issued by NWS Charleston, SC

Current Version | Previous Version | Text Only | Print | Product List | Glossary Off
Versions: 1 2 3 4 5 6 7 8 9 10 11 12 13 14 15 16 17 18 19 20 21 22 23 24 25 26 27 28 29 30 31 32 33 34 35 36 37 38 39 40 41 42 43 44 45 46 47 48 49 50
000 ASUS42 KCHS 240025 RWRCHS REGIONAL WEATHER ROUNDUP NATIONAL WEATHER SERVICE CHARLESTON SC 800 PM EDT THU OCT 23 2014 NOTE: "FAIR" INDICATES FEW OR NO CLOUDS BELOW 12,000 FEET WITH NO SIGNIFICANT WEATHER AND/OR OBSTRUCTIONS TO VISIBILITY. NOT ALL STATIONS ARE QUALITY CONTROLLED BY THE NATIONAL WEATHER SERVICE. USE DATA WITH CAUTION...ESPECIALLY DEWPOINT OBSERVATIONS. SCZ027-030-031-034>040-042>050-240100- ...SOUTH CAROLINA... CITY SKY/WX TMP DP RH WIND PRES REMARKS N CHARLESTON CLEAR 60 49 66 W3 30.02R 6HR MIN TEMP: 59; 6HR MAX TEMP: 72; WATERFRONT PRK N/A 63 N/A N/A SW3 N/A FORT JOHNSON NOT AVBL JOHNS ISLAND CLEAR 55 52 88 CALM 30.03R PINOPOLIS NOT AVBL MONCKS CORNER FAIR 54 54 100 CALM 30.02R SUMMERVILLE FAIR 54 54 100 CALM 30.03R BEAUFORT MCAS CLEAR 57 50 77 SW5 30.02R 6HR MIN TEMP: 56; 6HR MAX TEMP: 71; BEAUFORT ARPT FAIR 55 52 88 CALM 30.02R HILTON HEAD IS CLEAR 61 50 67 CALM 30.03R GEORGETOWN NOT AVBL WALTERBORO CLEAR 54 54 100 CALM 30.03S ORANGEBURG CLEAR 55 45 68 CALM 30.02R 6HR MIN TEMP: 55; 6HR MAX TEMP: 71; BARNWELL FAIR 54 46 76 CALM 30.03R AIKEN FAIR 55 45 67 W3 30.06S MANNING FAIR 54 52 94 CALM 30.02R KINGSTREE NOT AVBL COLUMBIA PTCLDY 56 47 71 CALM 30.01R 6HR MIN TEMP: 56; 6HR MAX TEMP: 72; SUMTER CLEAR 55 46 70 SW3 30.00R 6HR MIN TEMP: 55; 6HR MAX TEMP: 70; FLORENCE CLEAR 55 44 66 NW6 30.00R 6HR MIN TEMP: 54; 6HR MAX TEMP: 70; MYRTLE BEACH CLEAR 57 46 67 W6 29.99R N MYRTLE BEACH CLEAR 56 46 69 CALM 29.98R 6HR MIN TEMP: 56; 6HR MAX TEMP: 70; $$ GAZ063-065-086>088-099>101-113>116-118-119-134-136>141-150-240100- ...GEORGIA... CITY SKY/WX TMP DP RH WIND PRES REMARKS SAVANNAH ARPT PTCLDY 59 49 69 CALM 30.03R 6HR MIN TEMP: 58; 6HR MAX TEMP: 73; HUNTER AAF CLEAR 57 49 76 CALM 30.01R 6HR MIN TEMP: 57; 6HR MAX TEMP: 71; FORT STEWART CLEAR 56 49 78 CALM 30.02R 6HR MIN TEMP: 56; 6HR MAX TEMP: 72; STATESBORO NOT AVBL SYLVANIA CLEAR 59 56 89 CALM 30.03S CLAXTON FAIR 54 54 100 CALM 30.04R THOMSON PTCLDY 55 55 98 CALM 30.08R AUGUSTA-BUSH CLEAR 53 42 66 CALM 30.02R 6HR MIN TEMP: 51; 6HR MAX TEMP: 74; AUGUSTA-DANIEL CLEAR 64 43 46 NW5 30.03R SWAINSBORO FAIR 55 50 82 MISG 30.04R VIDALIA CLEAR 57 48 72 CALM 30.04R ALMA CLEAR 54 49 83 CALM 30.02R 6HR MIN TEMP: 54; 6HR MAX TEMP: 74; WAYCROSS CLEAR 59 54 82 CALM 30.03R JESUP FAIR 55 52 88 CALM 30.03S BRUNSWICK CLEAR 55 52 88 CALM 30.03R SAINT SIMONS CLEAR 61 50 67 CALM 30.02R 6HR MIN TEMP: 61; 6HR MAX TEMP: 72; $$ SCZ027-028-034-036>038-045-046-048>050-GAZ119-141-240100- ...LAKE AND SUPPLEMENTAL COASTAL OBSERVATIONS... STATION/POSITION TIME TEMP WIND PRES WAVE SWELL AIR SEA DIR/SP/G HT/PER HT/PER/DIR (UTC) (F) (DEG/KT/KT) (MB) (FT/S) (FT/S/D) UPR LAKE MARION NOT AVBL WINYAH BAY 0000 60 260/ 4 1015.0S LAKE MURRAY 2300 63 300/ 3/ 4 1015.6R ACE BASIN NERRS 0000 55 CALM 1016.0S FORT PULASKI 0000 63 190/ 2/ 3 1017.0R SAPELO ISLAND NOT AVBL $$ ANZ835-935-AMZ111-154-330-350-352-354-374-450-454-472-240100- ...C-MAN AND BUOY OBSERVATIONS... STATION/POSITION TIME TEMP WIND PRES WAVE SWELL AIR SEA DIR/SP/G HT/PER HT/PER/DIR (UTC) (F) (DEG/KT/KT) (MB) (FT/S) (FT/S/D) FOLLY BEACH CMAN 0000 63 260/ 3/ 3 1017.0R BUOY 41004 0000 68 78 300/ 12/ 16 1015.6R 2/ 9 2/ 9 BUOY 41008 0000 67 75 20/ 4/ 8 1016.7R 2/ 5 2/ 60/ 5 5E ST. MARYS GA 0000 76 N/A 2/ 6 FRYING PAN BUOY 0000 68 74 280/ 16/ 19 1015.3R 4/12 2/100/12 BUOY 41025 0000 65 310/ 16/ 21 1012.7R 5/ 5 2/ 50/ 9 CAPE LOOKOUT NC 0000 66 300/ 12/ 15 1013.6R BUOY 41002 NOT AVBL BUOY 41010 0000 74 81 30/ 10/ 14 1015.1R 3/ 9 3/ 40/ 9 BUOY 41012 NOT AVBL ST AUGUSTINE FL 0000 68 30/ 9/ 12 1017.1R CAPERS NEARSHORE NOT AVBL FRIPP NEARSHORE NOT AVBL $$

USA.gov is the U.S. government's official web portal to all federal, state and local government web resources and services.